| time (UTC) | temp F | wind direction | speed MPH | gust MPH | rain 1hr in | rain 24hr in | rain mn in | humidity % | barometer mb |
| 20260507074003 | 67 | 74 | 7.0 | 19.0 | 0.00 | 0.00 | 0.00 | 72 | 1013.7 |
| 20260507073503 | 66 | 60 | 6.0 | 17.0 | 0.00 | 0.00 | 0.00 | 72 | 1013.9 |
| 20260507073004 | 66 | 38 | 6.0 | 17.0 | 0.00 | 0.00 | 0.00 | 73 | 1013.8 |
| 20260507072503 | 67 | 44 | 5.0 | 17.0 | 0.00 | 0.00 | 0.00 | 71 | 1013.9 |
| 20260507072004 | 66 | 69 | 6.0 | 23.0 | 0.00 | 0.00 | 0.00 | 73 | 1013.7 |
| 20260507071504 | 66 | 76 | 6.0 | 23.0 | 0.00 | 0.00 | 0.00 | 74 | 1013.9 |
| 20260507071004 | 66 | 74 | 6.0 | 18.0 | 0.00 | 0.00 | 0.00 | 72 | 1013.9 |
| 20260507070714 | 66 | 65 | 5.0 | 9.0 | 0.00 | 0.00 | 0.00 | 73 | 1013.9 |
| 20260507070217 | 66 | 48 | 5.0 | 19.0 | 0.00 | 0.00 | 0.00 | 73 | 1014.2 |
| 20260507065503 | 66 | 47 | 4.0 | 17.0 | 0.00 | 0.00 | 0.00 | 75 | 1013.9 |
| 20260507065213 | 66 | 50 | 4.0 | 17.0 | 0.00 | 0.00 | 0.00 | 74 | 1014.3 |
| 20260507064716 | 65 | 45 | 5.0 | 17.0 | 0.00 | 0.00 | 0.00 | 76 | 1014.1 |
| 20260507064213 | 65 | 63 | 5.0 | 10.0 | 0.00 | 0.00 | 0.00 | 79 | 1014.3 |
| 20260507063503 | 65 | 59 | 6.0 | 19.0 | 0.00 | 0.00 | 0.00 | 80 | 1014.2 |
| 20260507063003 | 64 | 60 | 6.0 | 18.0 | 0.00 | 0.00 | 0.00 | 82 | 1014.1 |
| 20260507062504 | 64 | 72 | 5.0 | 17.0 | 0.00 | 0.00 | 0.00 | 82 | 1014.2 |
| 20260507062003 | 64 | 73 | 5.0 | 14.0 | 0.00 | 0.00 | 0.00 | 83 | 1014.3 |
| 20260507061503 | 64 | 69 | 4.0 | 16.0 | 0.00 | 0.00 | 0.00 | 84 | 1014.1 |
| 20260507061217 | 64 | 71 | 4.0 | 16.0 | 0.00 | 0.00 | 0.00 | 84 | 1014.1 |
| 20260507060714 | 64 | 66 | 4.0 | 9.0 | 0.00 | 0.00 | 0.00 | 85 | 1014.1 |
| 20260507060004 | 63 | 69 | 5.0 | 18.0 | 0.00 | 0.00 | 0.00 | 86 | 1014.3 |
| 20260507055503 | 63 | 67 | 5.0 | 18.0 | 0.00 | 0.00 | 0.00 | 85 | 1014.4 |
| 20260507055213 | 63 | 69 | 4.0 | 16.0 | 0.00 | 0.00 | 0.00 | 85 | 1014.4 |
| 20260507054716 | 63 | 71 | 4.0 | 14.0 | 0.00 | 0.00 | 0.00 | 86 | 1014.4 |
| 20260507054004 | 63 | 82 | 4.0 | 14.0 | 0.00 | 0.00 | 0.00 | 85 | 1014.3 |
| 20260507053503 | 63 | 78 | 3.0 | 11.0 | 0.00 | 0.00 | 0.00 | 84 | 1014.2 |
| 20260507053004 | 63 | 67 | 3.0 | 11.0 | 0.00 | 0.00 | 0.00 | 84 | 1014.4 |
| 20260507052503 | 63 | 51 | 4.0 | 11.0 | 0.00 | 0.00 | 0.00 | 84 | 1014.2 |
| 20260507052004 | 63 | 45 | 4.0 | 11.0 | 0.00 | 0.00 | 0.00 | 83 | 1014.1 |
| 20260507051503 | 63 | 61 | 4.0 | 7.0 | 0.00 | 0.00 | 0.00 | 83 | 1014.1 |
| 20260507051003 | 62 | 61 | 4.0 | 13.0 | 0.00 | 0.00 | 0.00 | 83 | 1014.1 |
| 20260507050503 | 63 | 53 | 4.0 | 13.0 | 0.00 | 0.00 | 0.00 | 85 | 1014.2 |
| 20260507050003 | 62 | 58 | 3.0 | 10.0 | 0.00 | 0.00 | 0.00 | 84 | 1014.3 |
| 20260507045503 | 62 | 58 | 3.0 | 10.0 | 0.00 | 0.00 | 0.00 | 84 | 1014.1 |
| 20260507045003 | 62 | 45 | 3.0 | 7.0 | 0.00 | 0.00 | 0.00 | 84 | 1013.8 |
| 20260507044504 | 62 | 55 | 4.0 | 13.0 | 0.00 | 0.00 | 0.00 | 84 | 1014.0 |
| 20260507044004 | 62 | 74 | 3.0 | 13.0 | 0.00 | 0.00 | 0.00 | 84 | 1014.1 |
| 20260507043503 | 62 | 69 | 3.0 | 9.0 | 0.00 | 0.00 | 0.00 | 84 | 1014.1 |
| 20260507043004 | 62 | 59 | 2.0 | 7.0 | 0.00 | 0.00 | 0.00 | 84 | 1014.0 |
| 20260507042503 | 62 | 67 | 2.0 | 9.0 | 0.00 | 0.00 | 0.00 | 84 | 1014.1 |
| 20260507042003 | 62 | 76 | 2.0 | 9.0 | 0.00 | 0.00 | 0.00 | 83 | 1014.1 |
| 20260507041503 | 62 | 70 | 2.0 | 7.0 | 0.00 | 0.00 | 0.00 | 82 | 1013.9 |
| 20260507041003 | 62 | 56 | 1.0 | 4.0 | 0.00 | 0.00 | 0.00 | 80 | 1014.0 |
| 20260507040503 | 62 | 57 | 2.0 | 8.0 | 0.00 | 0.00 | 0.00 | 78 | 1014.0 |
| 20260507040003 | 63 | 62 | 1.0 | 8.0 | 0.00 | 0.00 | 0.00 | 77 | 1014.0 |
| 20260507035504 | 62 | 56 | 1.0 | 7.0 | 0.00 | 0.00 | 0.00 | 79 | 1014.2 |
| 20260507035004 | 63 | 43 | 1.0 | 6.0 | 0.00 | 0.00 | 0.00 | 78 | 1014.2 |
| 20260507034718 | 63 | 39 | 1.0 | 6.0 | 0.00 | 0.00 | 0.00 | 77 | 1014.5 |
| 20260507034003 | 63 | 43 | 1.0 | 4.0 | 0.00 | 0.00 | 0.00 | 74 | 1014.4 |
| 20260507033503 | 62 | 67 | 1.0 | 4.0 | 0.00 | 0.00 | 0.00 | 79 | 1014.3 |
| 20260507033004 | 63 | 91 | 1.0 | 4.0 | 0.00 | 0.00 | 0.00 | 78 | 1014.5 |
| 20260507032503 | 63 | 107 | 1.0 | 3.0 | 0.00 | 0.00 | 0.00 | 78 | 1014.6 |
| 20260507032004 | 63 | 50 | 1.0 | 6.0 | 0.00 | 0.00 | 0.00 | 76 | 1014.5 |
| 20260507031504 | 63 | 44 | 1.0 | 6.0 | 0.00 | 0.00 | 0.00 | 75 | 1014.5 |
| 20260507031004 | 63 | 68 | 1.0 | 3.0 | 0.00 | 0.00 | 0.00 | 74 | 1014.4 |
| 20260507030503 | 63 | 50 | 1.0 | 7.0 | 0.00 | 0.00 | 0.00 | 73 | 1014.5 |
| 20260507030003 | 64 | 39 | 1.0 | 7.0 | 0.00 | 0.00 | 0.00 | 72 | 1014.6 |
| 20260507025503 | 64 | 40 | 0.0 | 2.0 | 0.00 | 0.00 | 0.00 | 70 | 1014.7 |
| 20260507025004 | 64 | 45 | 1.0 | 6.0 | 0.00 | 0.00 | 0.00 | 68 | 1014.6 |
| 20260507024503 | 64 | 39 | 1.0 | 6.0 | 0.00 | 0.00 | 0.00 | 65 | 1014.5 |
| 20260507024003 | 64 | 37 | 1.0 | 6.0 | 0.00 | 0.00 | 0.00 | 64 | 1014.4 |
| 20260507023504 | 64 | 75 | 1.0 | 3.0 | 0.00 | 0.00 | 0.00 | 63 | 1014.1 |
| 20260507023004 | 64 | 88 | 1.0 | 3.0 | 0.00 | 0.00 | 0.00 | 63 | 1014.3 |
| 20260507022503 | 64 | 92 | 1.0 | 2.0 | 0.00 | 0.00 | 0.00 | 64 | 1014.3 |
| 20260507022003 | 64 | 75 | 1.0 | 6.0 | 0.00 | 0.00 | 0.00 | 63 | 1014.0 |
| 20260507021504 | 64 | 63 | 1.0 | 6.0 | 0.00 | 0.00 | 0.00 | 62 | 1014.0 |
| 20260507021004 | 64 | 73 | 1.0 | 4.0 | 0.00 | 0.00 | 0.00 | 60 | 1013.9 |
| 20260507020503 | 64 | 91 | 1.0 | 2.0 | 0.00 | 0.00 | 0.00 | 61 | 1014.0 |
| 20260507020004 | 64 | 88 | 1.0 | 6.0 | 0.00 | 0.00 | 0.00 | 64 | 1014.0 |
| 20260507015713 | 64 | 85 | 1.0 | 6.0 | 0.00 | 0.00 | 0.00 | 63 | 1014.1 |
| 20260507015004 | 65 | 50 | 1.0 | 4.0 | 0.00 | 0.00 | 0.00 | 60 | 1014.0 |
| 20260507014503 | 64 | 94 | 1.0 | 4.0 | 0.00 | 0.00 | 0.00 | 62 | 1014.1 |
| 20260507014004 | 63 | 115 | 1.0 | 3.0 | 0.00 | 0.00 | 0.00 | 68 | 1014.0 |
| 20260507013715 | 63 | 109 | 1.0 | 2.0 | 0.00 | 0.00 | 0.00 | 68 | 1014.1 |
| 20260507013004 | 64 | 104 | 1.0 | 3.0 | 0.00 | 0.00 | 0.00 | 68 | 1014.1 |
| 20260507012504 | 63 | 95 | 1.0 | 2.0 | 0.00 | 0.00 | 0.00 | 67 | 1014.2 |
| 20260507012003 | 63 | 56 | 0.0 | 2.0 | 0.00 | 0.00 | 0.00 | 67 | 1014.4 |
| 20260507011503 | 63 | 78 | 0.0 | 2.0 | 0.00 | 0.00 | 0.00 | 67 | 1014.4 |
| 20260507011003 | 63 | 99 | 0.0 | 2.0 | 0.00 | 0.00 | 0.00 | 70 | 1014.5 |
| 20260507010503 | 63 | 83 | 0.0 | 2.0 | 0.00 | 0.00 | 0.00 | 70 | 1014.7 |
| 20260507010004 | 63 | 98 | 1.0 | 3.0 | 0.00 | 0.00 | 0.00 | 71 | 1014.7 |
| 20260507005504 | 63 | 94 | 1.0 | 3.0 | 0.00 | 0.00 | 0.00 | 72 | 1014.6 |
| 20260507005004 | 63 | 97 | 1.0 | 2.0 | 0.00 | 0.00 | 0.00 | 75 | 1014.6 |
| 20260507004714 | 63 | 115 | 1.0 | 4.0 | 0.00 | 0.00 | 0.00 | 76 | 1014.5 |
| 20260507004003 | 63 | 115 | 1.0 | 4.0 | 0.00 | 0.00 | 0.00 | 76 | 1014.5 |
| 20260507003503 | 63 | 101 | 1.0 | 3.0 | 0.00 | 0.00 | 0.00 | 77 | 1014.5 |
| 20260507003003 | 63 | 88 | 1.0 | 3.0 | 0.00 | 0.00 | 0.00 | 77 | 1014.7 |
| 20260507002503 | 62 | 77 | 0.0 | 3.0 | 0.00 | 0.00 | 0.00 | 78 | 1014.8 |
| 20260507002003 | 62 | 95 | 0.0 | 3.0 | 0.00 | 0.00 | 0.00 | 78 | 1015.1 |
| 20260507001504 | 62 | 105 | 0.0 | 3.0 | 0.00 | 0.00 | 0.00 | 79 | 1015.0 |
| 20260507001003 | 62 | 108 | 0.0 | 2.0 | 0.00 | 0.00 | 0.00 | 80 | 1015.1 |
| 20260507000503 | 62 | 137 | 1.0 | 2.0 | 0.00 | 0.00 | 0.00 | 80 | 1015.2 |
| 20260507000216 | 62 | 146 | 1.0 | 1.0 | 0.00 | 0.00 | 0.00 | 80 | 1015.3 |
| 20260506235504 | 62 | 132 | 1.0 | 3.0 | 0.00 | 0.00 | 0.00 | 80 | 1015.3 |
| 20260506235004 | 62 | 142 | 0.0 | 2.0 | 0.00 | 0.00 | 0.00 | 80 | 1015.2 |
| 20260506234503 | 62 | 135 | 0.0 | 2.0 | 0.00 | 0.00 | 0.00 | 80 | 1015.4 |
| 20260506234003 | 62 | 104 | 1.0 | 4.0 | 0.00 | 0.00 | 0.00 | 80 | 1015.4 |
| 20260506233503 | 62 | 98 | 1.0 | 4.0 | 0.00 | 0.00 | 0.00 | 81 | 1015.1 |
| 20260506233004 | 62 | 72 | 0.0 | 2.0 | 0.00 | 0.00 | 0.00 | 81 | 1015.2 |
| 20260506232717 | 62 | 56 | 1.0 | 2.0 | 0.00 | 0.00 | 0.00 | 82 | 1015.3 |
| 20260506232003 | 62 | 49 | 1.0 | 3.0 | 0.00 | 0.00 | 0.00 | 82 | 1015.3 |
| 20260506231503 | 62 | 58 | 1.0 | 3.0 | 0.00 | 0.00 | 0.00 | 82 | 1015.5 |
| 20260506230503 | 62 | 40 | 1.0 | 7.0 | 0.00 | 0.00 | 0.00 | 82 | 1015.6 |
| 20260506230003 | 62 | 50 | 1.0 | 7.0 | 0.00 | 0.00 | 0.00 | 82 | 1015.6 |
| 20260506225504 | 62 | 76 | 1.0 | 4.0 | 0.00 | 0.00 | 0.00 | 81 | 1015.4 |
| 20260506225003 | 62 | 74 | 1.0 | 3.0 | 0.00 | 0.00 | 0.00 | 81 | 1015.4 |
| 20260506224714 | 62 | 54 | 1.0 | 3.0 | 0.00 | 0.00 | 0.00 | 81 | 1015.4 |
| 20260506224004 | 63 | 54 | 1.0 | 4.0 | 0.00 | 0.00 | 0.00 | 81 | 1015.6 |
| 20260506223504 | 63 | 75 | 1.0 | 4.0 | 0.00 | 0.00 | 0.00 | 82 | 1015.7 |
| 20260506223003 | 63 | 83 | 1.0 | 3.0 | 0.00 | 0.00 | 0.00 | 83 | 1015.8 |
| 20260506222503 | 63 | 72 | 1.0 | 6.0 | 0.00 | 0.00 | 0.00 | 83 | 1015.8 |
| 20260506222003 | 63 | 56 | 1.0 | 6.0 | 0.00 | 0.00 | 0.00 | 83 | 1015.6 |
| 20260506221504 | 63 | 70 | 1.0 | 4.0 | 0.00 | 0.00 | 0.00 | 83 | 1015.9 |
| 20260506221004 | 63 | 67 | 1.0 | 4.0 | 0.00 | 0.00 | 0.00 | 83 | 1015.9 |
| 20260506220503 | 63 | 55 | 1.0 | 3.0 | 0.00 | 0.00 | 0.00 | 84 | 1015.9 |
| 20260506220008 | 63 | 55 | 1.0 | 4.0 | 0.00 | 0.00 | 0.00 | 85 | 1015.7 |
| 20260506215503 | 63 | 58 | 1.0 | 6.0 | 0.00 | 0.00 | 0.00 | 85 | 1015.8 |
| 20260506215003 | 63 | 56 | 1.0 | 6.0 | 0.00 | 0.00 | 0.00 | 85 | 1015.9 |
| 20260506214504 | 63 | 38 | 2.0 | 5.0 | 0.00 | 0.00 | 0.00 | 85 | 1016.1 |
| 20260506214004 | 63 | 33 | 2.0 | 8.0 | 0.00 | 0.00 | 0.00 | 85 | 1016.3 |
| 20260506213504 | 63 | 40 | 2.0 | 8.0 | 0.00 | 0.00 | 0.00 | 85 | 1015.8 |
| 20260506213214 | 63 | 46 | 2.0 | 4.0 | 0.00 | 0.00 | 0.00 | 85 | 1016.1 |
| 20260506212503 | 63 | 74 | 2.0 | 7.0 | 0.00 | 0.00 | 0.00 | 85 | 1015.8 |
| 20260506212003 | 63 | 71 | 2.0 | 7.0 | 0.00 | 0.00 | 0.00 | 85 | 1016.0 |
| 20260506211503 | 63 | 60 | 2.0 | 6.0 | 0.00 | 0.00 | 0.00 | 85 | 1016.0 |
| 20260506211003 | 63 | 62 | 2.0 | 8.0 | 0.00 | 0.00 | 0.00 | 85 | 1016.1 |
| 20260506210714 | 63 | 62 | 2.0 | 8.0 | 0.00 | 0.00 | 0.00 | 86 | 1016.0 |
| 20260506210004 | 63 | 52 | 1.0 | 7.0 | 0.00 | 0.00 | 0.00 | 86 | 1016.0 |
| 20260506205715 | 63 | 50 | 1.0 | 6.0 | 0.00 | 0.00 | 0.00 | 86 | 1015.8 |
| 20260506205004 | 63 | 44 | 2.0 | 6.0 | 0.00 | 0.00 | 0.00 | 86 | 1015.7 |
| 20260506204504 | 63 | 43 | 2.0 | 10.0 | 0.00 | 0.00 | 0.00 | 86 | 1015.7 |
| 20260506204004 | 63 | 55 | 3.0 | 10.0 | 0.00 | 0.00 | 0.00 | 86 | 1015.6 |
| 20260506203717 | 63 | 64 | 2.0 | 9.0 | 0.00 | 0.00 | 0.00 | 86 | 1015.3 |
| 20260506203004 | 63 | 51 | 3.0 | 11.0 | 0.00 | 0.00 | 0.00 | 86 | 1015.1 |
| 20260506202503 | 63 | 52 | 3.0 | 11.0 | 0.00 | 0.00 | 0.00 | 86 | 1014.8 |
| 20260506202003 | 63 | 66 | 3.0 | 10.0 | 0.00 | 0.00 | 0.00 | 85 | 1014.9 |
| 20260506201503 | 63 | 66 | 3.0 | 9.0 | 0.00 | 0.00 | 0.00 | 85 | 1015.1 |
| 20260506201004 | 63 | 64 | 3.0 | 6.0 | 0.00 | 0.00 | 0.00 | 85 | 1015.0 |
| 20260506200503 | 63 | 58 | 3.0 | 9.0 | 0.00 | 0.00 | 0.00 | 85 | 1014.9 |
| 20260506200005 | 63 | 53 | 3.0 | 9.0 | 0.00 | 0.00 | 0.00 | 85 | 1014.8 |
| 20260506195503 | 63 | 52 | 3.0 | 6.0 | 0.00 | 0.00 | 0.00 | 85 | 1014.3 |
| 20260506195003 | 63 | 57 | 3.0 | 13.0 | 0.00 | 0.00 | 0.00 | 85 | 1014.5 |
| 20260506194503 | 63 | 61 | 3.0 | 13.0 | 0.00 | 0.00 | 0.00 | 84 | 1014.5 |
| 20260506194004 | 63 | 61 | 2.0 | 6.0 | 0.00 | 0.00 | 0.00 | 85 | 1015.1 |
| 20260506193503 | 63 | 71 | 2.0 | 9.0 | 0.00 | 0.00 | 0.00 | 85 | 1015.4 |
| 20260506193003 | 63 | 63 | 2.0 | 9.0 | 0.00 | 0.00 | 0.00 | 85 | 1015.7 |
| 20260506192504 | 63 | 51 | 1.0 | 3.0 | 0.00 | 0.00 | 0.00 | 85 | 1015.8 |
| 20260506192003 | 63 | 51 | 1.0 | 4.0 | 0.00 | 0.00 | 0.00 | 85 | 1015.7 |
| 20260506191504 | 63 | 52 | 1.0 | 4.0 | 0.00 | 0.00 | 0.00 | 85 | 1016.0 |
| 20260506191004 | 63 | 72 | 1.0 | 7.0 | 0.00 | 0.00 | 0.00 | 85 | 1016.0 |
| 20260506190504 | 63 | 82 | 2.0 | 7.0 | 0.00 | 0.00 | 0.00 | 85 | 1016.0 |
| 20260506190004 | 63 | 101 | 2.0 | 6.0 | 0.00 | 0.00 | 0.00 | 85 | 1015.9 |
| 20260506185504 | 63 | 77 | 2.0 | 7.0 | 0.00 | 0.00 | 0.00 | 86 | 1015.9 |
| 20260506185004 | 63 | 67 | 2.0 | 7.0 | 0.00 | 0.00 | 0.00 | 86 | 1015.9 |
| 20260506184503 | 63 | 81 | 1.0 | 6.0 | 0.00 | 0.00 | 0.00 | 86 | 1015.9 |
| 20260506184215 | 63 | 86 | 1.0 | 6.0 | 0.00 | 0.00 | 0.00 | 86 | 1016.0 |
| 20260506183504 | 63 | 88 | 2.0 | 8.0 | 0.00 | 0.00 | 0.00 | 86 | 1016.1 |
| 20260506183003 | 63 | 80 | 2.0 | 8.0 | 0.00 | 0.00 | 0.00 | 86 | 1016.1 |
| 20260506182504 | 63 | 86 | 2.0 | 8.0 | 0.00 | 0.00 | 0.00 | 86 | 1016.1 |
| 20260506182003 | 63 | 84 | 2.0 | 8.0 | 0.00 | 0.00 | 0.00 | 86 | 1016.0 |
| 20260506181503 | 63 | 63 | 2.0 | 7.0 | 0.00 | 0.00 | 0.00 | 85 | 1016.1 |
| 20260506181003 | 64 | 70 | 2.0 | 8.0 | 0.00 | 0.00 | 0.00 | 85 | 1016.1 |
| 20260506180503 | 64 | 80 | 2.0 | 8.0 | 0.00 | 0.00 | 0.00 | 85 | 1016.1 |
| 20260506180005 | 64 | 73 | 2.0 | 7.0 | 0.00 | 0.00 | 0.00 | 85 | 1016.2 |
| 20260506175504 | 64 | 74 | 1.0 | 7.0 | 0.00 | 0.00 | 0.00 | 85 | 1016.1 |
| 20260506175004 | 64 | 72 | 1.0 | 4.0 | 0.00 | 0.00 | 0.00 | 85 | 1016.1 |
| 20260506174503 | 64 | 77 | 2.0 | 8.0 | 0.00 | 0.00 | 0.00 | 85 | 1016.1 |
| 20260506174004 | 64 | 63 | 2.0 | 8.0 | 0.00 | 0.00 | 0.00 | 84 | 1016.0 |
| 20260506173503 | 64 | 82 | 2.0 | 4.0 | 0.00 | 0.00 | 0.00 | 85 | 1015.8 |
| 20260506173003 | 64 | 83 | 2.0 | 8.0 | 0.00 | 0.00 | 0.00 | 85 | 1015.8 |
| 20260506172714 | 64 | 72 | 2.0 | 8.0 | 0.00 | 0.00 | 0.00 | 85 | 1015.7 |
| 20260506172003 | 64 | 80 | 3.0 | 11.0 | 0.00 | 0.00 | 0.00 | 84 | 1015.7 |
| 20260506171715 | 64 | 80 | 3.0 | 11.0 | 0.00 | 0.00 | 0.00 | 84 | 1015.7 |
| 20260506171213 | 64 | 70 | 2.0 | 5.0 | 0.00 | 0.00 | 0.00 | 84 | 1015.7 |
| 20260506170503 | 64 | 66 | 2.0 | 8.0 | 0.00 | 0.00 | 0.00 | 83 | 1015.6 |
| 20260506170004 | 64 | 67 | 3.0 | 7.0 | 0.00 | 0.00 | 0.00 | 83 | 1015.5 |
| 20260506165503 | 64 | 83 | 3.0 | 9.0 | 0.00 | 0.00 | 0.00 | 83 | 1015.6 |
| 20260506165004 | 64 | 95 | 3.0 | 9.0 | 0.00 | 0.00 | 0.00 | 82 | 1015.6 |
| 20260506164503 | 64 | 101 | 3.0 | 10.0 | 0.00 | 0.00 | 0.00 | 82 | 1015.8 |
| 20260506164003 | 64 | 99 | 3.0 | 10.0 | 0.00 | 0.00 | 0.00 | 82 | 1015.8 |
| 20260506163504 | 65 | 94 | 2.0 | 9.0 | 0.00 | 0.00 | 0.00 | 82 | 1015.8 |
| 20260506163003 | 65 | 84 | 1.0 | 8.0 | 0.00 | 0.00 | 0.00 | 81 | 1015.6 |
| 20260506162503 | 65 | 79 | 2.0 | 8.0 | 0.00 | 0.00 | 0.00 | 81 | 1015.7 |
| 20260506162213 | 64 | 70 | 2.0 | 10.0 | 0.00 | 0.00 | 0.00 | 81 | 1015.7 |
| 20260506161503 | 65 | 78 | 3.0 | 10.0 | 0.00 | 0.00 | 0.00 | 81 | 1015.9 |
| 20260506161214 | 65 | 82 | 2.0 | 6.0 | 0.00 | 0.00 | 0.00 | 81 | 1015.8 |
| 20260506160503 | 65 | 67 | 2.0 | 9.0 | 0.00 | 0.00 | 0.00 | 82 | 1015.7 |
| 20260506160215 | 65 | 65 | 3.0 | 9.0 | 0.00 | 0.00 | 0.00 | 82 | 1015.9 |
| 20260506155504 | 65 | 76 | 2.0 | 7.0 | 0.00 | 0.00 | 0.00 | 81 | 1015.9 |
| 20260506155003 | 65 | 81 | 2.0 | 7.0 | 0.00 | 0.00 | 0.00 | 81 | 1016.0 |
| 20260506154503 | 65 | 77 | 2.0 | 7.0 | 0.00 | 0.00 | 0.00 | 81 | 1016.0 |
| 20260506154004 | 65 | 76 | 3.0 | 9.0 | 0.00 | 0.00 | 0.00 | 80 | 1016.0 |
| 20260506153504 | 65 | 73 | 3.0 | 9.0 | 0.00 | 0.00 | 0.00 | 80 | 1016.1 |
| 20260506153004 | 65 | 77 | 2.0 | 8.0 | 0.00 | 0.00 | 0.00 | 81 | 1015.9 |
| 20260506152503 | 66 | 88 | 3.0 | 11.0 | 0.00 | 0.00 | 0.00 | 80 | 1015.9 |
| 20260506152003 | 65 | 91 | 2.0 | 11.0 | 0.00 | 0.00 | 0.00 | 80 | 1015.8 |
| 20260506151504 | 66 | 98 | 2.0 | 9.0 | 0.00 | 0.00 | 0.00 | 79 | 1015.9 |
| 20260506151004 | 65 | 94 | 3.0 | 9.0 | 0.00 | 0.00 | 0.00 | 79 | 1016.0 |
| 20260506150503 | 65 | 93 | 2.0 | 8.0 | 0.00 | 0.00 | 0.00 | 80 | 1016.1 |
| 20260506150004 | 66 | 95 | 2.0 | 8.0 | 0.00 | 0.00 | 0.00 | 79 | 1016.4 |
| 20260506145504 | 65 | 94 | 3.0 | 9.0 | 0.00 | 0.00 | 0.00 | 79 | 1016.1 |
| 20260506145003 | 65 | 87 | 3.0 | 9.0 | 0.00 | 0.00 | 0.00 | 79 | 1016.0 |
| 20260506144503 | 65 | 74 | 2.0 | 9.0 | 0.00 | 0.00 | 0.00 | 79 | 1016.0 |
| 20260506144003 | 66 | 88 | 3.0 | 9.0 | 0.00 | 0.00 | 0.00 | 78 | 1016.0 |
| 20260506143503 | 67 | 86 | 3.0 | 8.0 | 0.00 | 0.00 | 0.00 | 77 | 1016.1 |
| 20260506143003 | 67 | 88 | 3.0 | 8.0 | 0.00 | 0.00 | 0.00 | 77 | 1016.3 |
| 20260506142716 | 67 | 85 | 3.0 | 8.0 | 0.00 | 0.00 | 0.00 | 77 | 1016.1 |
| 20260506142214 | 66 | 82 | 3.0 | 8.0 | 0.00 | 0.00 | 0.00 | 78 | 1016.2 |
| 20260506141504 | 66 | 97 | 2.0 | 7.0 | 0.00 | 0.00 | 0.00 | 79 | 1016.2 |
| 20260506141215 | 67 | 102 | 2.0 | 7.0 | 0.00 | 0.00 | 0.00 | 77 | 1016.3 |
| 20260506140504 | 67 | 110 | 3.0 | 9.0 | 0.00 | 0.00 | 0.00 | 77 | 1016.4 |
| 20260506140004 | 66 | 89 | 3.0 | 9.0 | 0.00 | 0.00 | 0.00 | 79 | 1016.5 |
| 20260506135714 | 67 | 116 | 2.0 | 10.0 | 0.00 | 0.00 | 0.00 | 77 | 1016.3 |
| 20260506135003 | 67 | 109 | 3.0 | 10.0 | 0.00 | 0.00 | 0.00 | 78 | 1016.4 |
| 20260506134503 | 67 | 96 | 3.0 | 9.0 | 0.00 | 0.00 | 0.00 | 77 | 1016.1 |
| 20260506134004 | 66 | 94 | 3.0 | 8.0 | 0.00 | 0.00 | 0.00 | 78 | 1016.2 |
| 20260506133504 | 65 | 94 | 4.0 | 11.0 | 0.00 | 0.00 | 0.00 | 80 | 1016.3 |
| 20260506133214 | 65 | 98 | 3.0 | 11.0 | 0.00 | 0.00 | 0.00 | 80 | 1016.2 |
| 20260506132717 | 66 | 106 | 3.0 | 10.0 | 0.00 | 0.00 | 0.00 | 79 | 1016.4 |
| 20260506132003 | 67 | 90 | 2.0 | 8.0 | 0.00 | 0.00 | 0.00 | 78 | 1016.3 |
| 20260506131503 | 66 | 85 | 3.0 | 10.0 | 0.00 | 0.00 | 0.00 | 78 | 1016.5 |
| 20260506131003 | 67 | 89 | 3.0 | 10.0 | 0.00 | 0.00 | 0.00 | 78 | 1016.7 |
| 20260506130503 | 67 | 108 | 3.0 | 7.0 | 0.00 | 0.00 | 0.00 | 77 | 1016.3 |
| 20260506130004 | 68 | 96 | 3.0 | 11.0 | 0.00 | 0.00 | 0.00 | 76 | 1016.4 |
| 20260506125503 | 67 | 92 | 3.0 | 11.0 | 0.00 | 0.00 | 0.00 | 78 | 1016.4 |
| 20260506125003 | 66 | 103 | 3.0 | 10.0 | 0.00 | 0.00 | 0.00 | 79 | 1016.6 |
| 20260506124503 | 67 | 92 | 3.0 | 10.0 | 0.00 | 0.00 | 0.00 | 78 | 1016.4 |
| 20260506124003 | 66 | 78 | 3.0 | 11.0 | 0.00 | 0.00 | 0.00 | 78 | 1016.2 |
| 20260506123503 | 66 | 83 | 3.0 | 11.0 | 0.00 | 0.00 | 0.00 | 78 | 1016.2 |
| 20260506123003 | 66 | 103 | 3.0 | 9.0 | 0.00 | 0.00 | 0.00 | 79 | 1016.6 |
| 20260506122503 | 67 | 110 | 4.0 | 8.0 | 0.00 | 0.00 | 0.00 | 77 | 1016.4 |
| 20260506122003 | 66 | 102 | 4.0 | 9.0 | 0.00 | 0.00 | 0.00 | 79 | 1016.6 |
| 20260506121504 | 66 | 94 | 3.0 | 9.0 | 0.00 | 0.00 | 0.00 | 80 | 1017.0 |
| 20260506121216 | 67 | 88 | 2.0 | 6.0 | 0.00 | 0.00 | 0.00 | 78 | 1016.8 |
| 20260506120504 | 66 | 91 | 3.0 | 13.0 | 0.00 | 0.00 | 0.00 | 79 | 1016.8 |
| 20260506120004 | 67 | 106 | 3.0 | 9.0 | 0.00 | 0.00 | 0.00 | 78 | 1016.6 |
| 20260506115503 | 66 | 91 | 3.0 | 7.0 | 0.00 | 0.00 | 0.00 | 77 | 1016.8 |
| 20260506115003 | 66 | 76 | 3.0 | 10.0 | 0.00 | 0.00 | 0.00 | 78 | 1016.8 |
| 20260506114716 | 67 | 89 | 3.0 | 10.0 | 0.00 | 0.00 | 0.00 | 77 | 1016.8 |
| 20260506114004 | 68 | 105 | 3.0 | 9.0 | 0.00 | 0.00 | 0.00 | 74 | 1016.8 |
| 20260506113717 | 67 | 109 | 3.0 | 10.0 | 0.00 | 0.00 | 0.00 | 76 | 1016.9 |
| 20260506113004 | 68 | 105 | 3.0 | 10.0 | 0.00 | 0.00 | 0.00 | 72 | 1016.9 |
| 20260506112503 | 67 | 98 | 3.0 | 9.0 | 0.00 | 0.00 | 0.00 | 70 | 1017.0 |
| 20260506112003 | 68 | 83 | 3.0 | 9.0 | 0.00 | 0.00 | 0.00 | 75 | 1016.9 |
| 20260506111504 | 67 | 93 | 4.0 | 7.0 | 0.00 | 0.00 | 0.00 | 74 | 1017.0 |
| 20260506111217 | 67 | 109 | 5.0 | 11.0 | 0.00 | 0.00 | 0.00 | 75 | 1017.0 |
| 20260506110715 | 67 | 119 | 4.0 | 11.0 | 0.00 | 0.00 | 0.00 | 75 | 1016.8 |
| 20260506110004 | 67 | 91 | 3.0 | 10.0 | 0.00 | 0.00 | 0.00 | 76 | 1017.0 |
| 20260506105504 | 68 | 92 | 2.0 | 6.0 | 0.00 | 0.00 | 0.00 | 75 | 1016.8 |
| 20260506105214 | 67 | 102 | 3.0 | 10.0 | 0.00 | 0.00 | 0.00 | 75 | 1016.8 |
| 20260506104504 | 67 | 128 | 3.0 | 10.0 | 0.00 | 0.00 | 0.00 | 73 | 1016.8 |
| 20260506104004 | 68 | 140 | 3.0 | 9.0 | 0.00 | 0.00 | 0.00 | 74 | 1016.9 |
| 20260506103503 | 68 | 122 | 3.0 | 9.0 | 0.00 | 0.00 | 0.00 | 75 | 1017.0 |
| 20260506103003 | 67 | 104 | 2.0 | 9.0 | 0.00 | 0.00 | 0.00 | 72 | 1017.0 |
| 20260506102503 | 69 | 122 | 3.0 | 7.0 | 0.00 | 0.00 | 0.00 | 69 | 1017.0 |
| 20260506102004 | 68 | 128 | 3.0 | 9.0 | 0.00 | 0.00 | 0.00 | 71 | 1017.2 |
| 20260506101504 | 68 | 128 | 3.0 | 9.0 | 0.00 | 0.00 | 0.00 | 70 | 1017.3 |
| 20260506101004 | 68 | 138 | 2.0 | 9.0 | 0.00 | 0.00 | 0.00 | 71 | 1017.2 |
| 20260506100503 | 67 | 144 | 2.0 | 9.0 | 0.00 | 0.00 | 0.00 | 72 | 1017.3 |
| 20260506100214 | 68 | 136 | 3.0 | 9.0 | 0.00 | 0.00 | 0.00 | 73 | 1017.0 |
| 20260506095503 | 68 | 111 | 2.0 | 6.0 | 0.00 | 0.00 | 0.00 | 71 | 1017.0 |
| 20260506095003 | 67 | 115 | 3.0 | 8.0 | 0.00 | 0.00 | 0.00 | 73 | 1017.1 |
| 20260506094503 | 68 | 124 | 3.0 | 8.0 | 0.00 | 0.00 | 0.00 | 73 | 1017.2 |
| 20260506094003 | 69 | 142 | 2.0 | 8.0 | 0.00 | 0.00 | 0.00 | 71 | 1017.5 |
| 20260506093504 | 68 | 131 | 2.0 | 8.0 | 0.00 | 0.00 | 0.00 | 71 | 1017.3 |
| 20260506093216 | 67 | 110 | 2.0 | 7.0 | 0.00 | 0.00 | 0.00 | 72 | 1017.4 |
| 20260506092504 | 68 | 106 | 1.0 | 7.0 | 0.00 | 0.00 | 0.00 | 73 | 1017.1 |
| 20260506092217 | 67 | 126 | 1.0 | 6.0 | 0.00 | 0.00 | 0.00 | 74 | 1017.4 |
| 20260506091503 | 66 | 124 | 1.0 | 6.0 | 0.00 | 0.00 | 0.00 | 74 | 1017.4 |
| 20260506091004 | 66 | 122 | 1.0 | 4.0 | 0.00 | 0.00 | 0.00 | 74 | 1017.5 |
| 20260506090503 | 66 | 123 | 1.0 | 4.0 | 0.00 | 0.00 | 0.00 | 74 | 1017.3 |
| 20260506090003 | 66 | 136 | 1.0 | 4.0 | 0.00 | 0.00 | 0.00 | 74 | 1017.5 |
| 20260506085503 | 66 | 140 | 1.0 | 3.0 | 0.00 | 0.00 | 0.00 | 74 | 1017.5 |
| 20260506085003 | 67 | 99 | 1.0 | 6.0 | 0.00 | 0.00 | 0.00 | 73 | 1017.3 |
| 20260506084503 | 66 | 101 | 1.0 | 6.0 | 0.00 | 0.00 | 0.00 | 73 | 1017.2 |
| 20260506084004 | 68 | 123 | 1.0 | 6.0 | 0.00 | 0.00 | 0.00 | 72 | 1017.0 |
| 20260506083504 | 67 | 119 | 2.0 | 6.0 | 0.00 | 0.00 | 0.00 | 73 | 1017.3 |
| 20260506083004 | 67 | 127 | 2.0 | 5.0 | 0.00 | 0.00 | 0.00 | 74 | 1017.1 |
| 20260506082503 | 68 | 130 | 2.0 | 6.0 | 0.00 | 0.00 | 0.00 | 72 | 1016.8 |
| 20260506082003 | 68 | 125 | 1.0 | 6.0 | 0.00 | 0.00 | 0.00 | 72 | 1016.9 |
| 20260506081504 | 68 | 122 | 1.0 | 7.0 | 0.00 | 0.00 | 0.00 | 73 | 1016.8 |
| 20260506081004 | 68 | 122 | 1.0 | 7.0 | 0.00 | 0.00 | 0.00 | 73 | 1016.9 |
| 20260506080504 | 68 | 116 | 2.0 | 4.0 | 0.00 | 0.00 | 0.00 | 72 | 1016.7 |